Main page
METAR-TAF:

METAR-TAF

Airports :

Udaipur, India

Maharana Pratap Airport

latitude: 24-37-04N, longitude: 73-53-46E, elevation: 513 m

Current weather observation

The report was made 8 hours and 19 minutes ago, at 15:00 UTC
Calm wind
Temperature 25°C
Humidity 94%
Pressure 1007 hPa
Visibility: 4000 m
Broken clouds at a height of 2500 ft
haze

METAR: VAUD 231500Z 00000KT 4000 HZ BKN025 25/24 Q1007 NOSIG

Time: 04:49 (23:19 UTC)


TAF: missing

Weather observations and forecasts of more than 4000 airports (METAR and TAF reports).

The available stations are represented by yellow and red dots on the map.

Hover mouse over dot to see the name of the station.

Then click to see weather observations and forecasts.

To change the map : click on the green buttons with a black cross to zoom in, on the green button with a dash to zoom out, or on the green arrows for adjacent maps.


METAR-TAF: